GEFSCGP_con_prob3kmehi_198.txt.gz
EHI
0 0 0 0 0 0 0 0 0 0 0 0 0 0 1 2 2 2 2 8 15 18 19 26 32 32 30 31 33 34 32 30 27 23 18 14 12 9 7 6 5 5 3 2
0 0 0 0 0 0 0 0 0 1 1 0 0 0 0 1 1 1 1 5 12 16 21 31 38 38 36 38 40 40 38 35 30 24 18 14 12 9 7 6 6 6 3 1
0 0 0 0 0 0 0 0 0 1 1 0 0 0 0 0 0 0 0 3 8 13 21 34 43 45 45 44 45 44 45 42 37 29 22 18 15 11 9 8 7 6 3 1
0 0 0 0 0 0 0 0 0 1 1 0 0 0 0 0 0 0 1 3 6 10 17 30 45 52 51 46 43 44 48 48 43 36 29 24 19 14 12 10 8 5 4 3
0 0 0 0 0 0 0 0 0 0 0 0 0 0 0 0 0 0 1 3 6 8 13 24 41 52 51 45 41 45 51 51 46 39 31 26 21 16 14 12 10 7 7 7
0 0 0 0 0 0 0 0 0 0 0 0 0 0 0 0 0 0 1 4 7 10 13 20 32 45 49 46 45 49 54 53 49 41 32 26 22 19 17 15 12 10 10 12
0 0 0 0 0 0 0 0 0 0 0 0 0 0 0 0 0 1 3 5 8 12 15 20 28 38 47 51 53 56 59 57 52 44 36 28 24 21 20 17 13 10 10 11
0 0 0 0 0 0 0 0 0 0 0 0 0 0 0 0 1 3 5 7 9 13 16 19 23 31 42 52 59 63 64 62 55 49 42 34 25 21 20 18 14 9 7 6
0 0 0 0 0 0 0 0 0 0 0 0 0 0 0 0 1 3 5 8 10 12 15 16 17 21 32 45 55 60 61 59 55 50 44 36 27 22 20 19 15 10 6 5
0 0 0 0 0 0 0 0 0 0 0 0 0 0 0 0 1 2 5 7 9 11 13 14 15 18 25 36 46 50 52 52 49 45 39 31 27 25 21 18 15 11 8 7
0 0 0 0 0 0 0 0 0 0 0 0 0 0 0 0 0 1 4 8 10 11 12 13 16 20 26 33 40 44 45 45 41 37 32 26 23 24 21 18 16 13 10 9
0 0 0 0 0 0 0 0 0 0 0 0 0 0 0 0 0 2 6 12 15 17 16 15 19 24 29 34 39 42 41 38 35 33 30 25 22 22 22 22 20 16 13 12
0 0 0 0 0 0 0 0 0 0 0 0 0 0 0 0 1 4 10 16 21 24 25 24 26 30 34 36 38 40 40 36 32 31 31 28 26 25 25 25 24 21 18 17
0 0 0 0 0 0 0 0 0 0 0 0 0 0 0 1 2 7 14 19 23 28 32 33 34 36 38 39 40 41 43 40 36 36 35 34 32 31 29 27 26 25 24 21
0 0 0 0 0 0 0 0 0 0 0 0 0 0 1 3 5 11 17 20 23 27 32 35 36 36 36 38 41 42 43 42 42 45 45 39 35 34 32 30 29 29 29 26
0 0 0 0 0 0 0 0 0 0 0 0 0 1 3 5 8 14 19 21 22 24 27 32 36 35 32 34 38 41 42 43 45 48 49 43 36 33 33 35 36 36 35 35
0 0 0 0 0 0 0 0 0 0 0 0 0 2 4 6 10 16 22 24 24 23 24 28 32 33 31 30 36 41 44 44 43 43 44 42 36 32 33 37 40 41 40 40
0 0 0 0 0 0 0 0 0 0 0 0 2 3 4 7 11 18 23 26 28 27 25 26 28 31 30 30 34 39 43 43 41 37 36 36 34 32 34 38 41 42 40 39
0 0 0 0 0 0 0 0 0 0 0 2 4 5 6 8 11 17 22 26 29 30 28 26 25 28 29 29 31 35 39 40 37 32 31 33 32 32 34 37 39 38 37 35
0 0 0 0 0 0 0 0 0 0 1 5 7 7 8 9 11 15 20 23 26 28 28 25 24 27 30 30 30 33 37 39 36 31 31 34 33 30 30 33 34 34 32 29
0 0 0 0 0 0 0 0 1 2 5 7 9 9 9 10 13 15 18 21 23 26 26 22 21 26 32 33 32 35 38 40 37 34 33 34 32 27 25 27 30 30 27 25
0 0 0 0 0 1 1 2 4 8 9 9 8 8 10 12 14 14 15 18 19 21 23 22 21 25 32 35 36 39 40 38 36 34 33 32 30 25 22 24 25 24 22 20
1 1 1 1 1 3 4 6 10 12 12 9 6 7 11 13 12 10 13 16 16 16 19 22 22 24 30 35 37 37 35 33 33 32 31 30 28 24 21 22 21 20 19 17
2 3 4 4 4 4 6 9 12 12 10 8 5 6 9 10 9 8 12 15 15 14 16 21 24 25 28 31 32 32 32 31 31 31 30 28 26 23 20 19 17 16 15 15
3 3 4 5 5 5 7 10 11 10 7 5 6 7 7 7 7 8 10 13 13 13 16 21 25 25 26 26 27 29 30 31 31 30 29 26 23 20 17 14 10 9 9 9
2 3 3 3 4 6 8 10 10 8 5 3 6 8 6 5 6 7 9 10 11 12 16 21 25 25 24 25 26 26 28 31 31 30 28 24 20 18 15 10 5 3 3 3

GEFSCGP_con_prob3kmehi_204.txt.gz
EHI
0 0 0 0 0 0 0 1 0 0 0 1 2 2 1 1 3 11 24 36 44 54 64 71 72 72 78 87 87 80 74 69 57 43 37 32 27 25 29 36 39 33 25 22
0 0 0 0 0 0 0 1 0 0 0 1 2 2 1 0 2 8 21 34 42 53 67 76 77 76 81 88 89 84 79 73 61 48 40 35 31 29 32 39 41 36 28 25
0 0 0 0 0 0 0 0 0 0 0 0 1 1 2 1 1 5 17 29 39 52 69 82 85 83 85 89 90 87 84 79 71 59 46 39 37 36 39 45 45 39 31 26
0 0 0 0 0 0 0 0 0 0 0 0 0 1 2 3 1 4 13 22 32 45 63 80 89 89 88 88 89 89 88 85 81 68 52 45 42 40 42 47 48 43 34 27
0 0 0 0 0 0 0 0 0 0 0 0 0 1 2 3 2 3 8 15 24 37 52 70 83 89 88 88 89 92 93 91 87 75 59 50 46 41 42 48 51 46 37 31
0 0 0 0 0 0 0 0 0 0 0 0 0 0 1 1 1 2 5 10 19 31 44 59 75 85 87 88 89 92 95 95 91 80 65 54 46 41 43 49 51 42 35 34
0 0 0 0 0 0 0 0 0 0 0 0 0 0 0 0 0 1 4 10 18 28 41 55 70 81 86 86 88 91 94 94 90 81 70 59 50 41 39 43 44 36 31 33
0 0 0 0 0 0 0 0 0 0 0 0 0 1 1 1 1 2 6 13 19 27 40 53 65 75 80 82 86 90 92 92 88 81 73 66 56 43 35 37 37 32 28 29
0 0 0 0 0 0 0 0 0 0 0 0 0 1 2 2 2 4 8 14 21 28 37 48 57 65 72 77 83 86 86 87 86 81 75 69 60 47 38 38 39 35 30 28
0 0 0 0 0 0 0 0 0 0 0 0 0 0 1 2 3 5 8 14 22 27 34 42 49 56 65 73 78 81 81 81 84 82 75 68 61 52 43 43 45 43 39 36
0 0 0 0 0 0 0 0 0 0 0 0 0 0 1 2 4 6 10 15 22 28 35 43 47 52 61 67 72 75 76 78 81 81 75 67 61 56 50 48 48 49 49 48
0 0 0 0 0 0 0 0 0 0 0 0 1 1 2 3 6 10 14 16 22 32 42 49 51 53 59 64 67 71 73 76 78 78 73 65 61 60 57 53 51 52 54 54
0 0 0 0 0 0 0 0 0 0 0 0 1 3 4 6 11 16 19 20 25 35 47 54 55 56 61 66 69 71 73 74 75 75 70 62 61 62 61 58 55 56 56 55
0 0 0 0 0 0 0 0 0 0 0 0 1 4 6 10 15 20 24 26 29 36 47 54 56 57 62 67 71 71 72 72 72 72 68 63 62 63 62 59 58 58 57 55
0 0 0 0 0 1 1 0 0 0 0 0 1 4 8 12 17 22 27 32 35 38 45 52 55 56 61 65 67 68 69 70 70 70 69 67 64 62 58 54 53 56 57 55
0 0 0 0 0 1 1 0 0 0 0 0 2 6 9 13 20 26 31 36 40 41 45 50 52 54 58 62 63 64 66 69 69 67 67 66 63 59 55 51 51 54 55 52
0 0 0 0 0 0 0 0 0 1 2 2 6 9 12 17 26 33 35 38 42 43 46 49 50 53 56 58 57 56 58 62 64 62 60 60 58 56 54 52 53 55 53 50
0 0 0 0 0 0 0 0 0 1 3 6 9 12 15 22 30 35 37 39 42 43 46 49 49 51 54 53 51 49 50 54 56 54 54 54 54 54 53 52 51 53 51 48
0 0 0 0 0 0 1 1 1 2 4 9 12 13 16 23 30 35 39 42 44 43 44 46 46 49 52 51 48 47 47 49 50 49 50 51 52 53 52 50 48 47 45 42
0 0 0 0 0 1 2 3 3 3 6 12 16 18 21 26 32 37 42 46 46 44 42 42 43 46 50 50 47 46 46 46 47 48 49 50 51 52 50 48 45 43 38 34
0 0 0 0 1 3 5 6 7 10 15 19 22 26 30 33 37 39 42 45 45 42 40 39 40 45 47 45 43 44 44 43 44 46 48 49 48 47 46 45 42 38 34 32
0 1 1 1 3 7 12 14 19 25 28 28 26 28 31 34 35 37 40 42 41 39 37 36 37 41 42 39 38 40 40 41 43 46 46 44 43 41 41 40 38 34 31 29
1 2 3 4 7 13 18 22 27 32 32 29 26 24 25 28 30 34 38 39 38 35 34 33 32 33 34 33 33 36 38 40 44 45 43 41 39 38 37 35 33 30 26 24
2 4 6 8 11 14 18 21 23 25 24 24 23 22 23 25 27 32 36 37 35 35 33 30 28 26 27 28 30 34 37 40 43 43 41 38 36 34 32 28 24 21 19 18
4 5 7 9 10 12 14 14 14 15 16 17 19 21 23 24 26 29 31 32 32 34 31 28 26 25 25 28 30 32 34 37 39 41 40 36 31 28 23 17 12 10 10 9
5 5 7 8 8 9 12 11 9 10 12 14 17 21 22 23 25 27 27 27 29 31 30 27 25 26 27 29 31 31 31 33 35 38 38 33 28 22 17 10 6 4 3 3

GEFSCGP_con_prob3kmehi_210.txt.gz
EHI
0 0 0 0 0 0 0 0 0 0 1 1 1 0 2 8 16 25 32 40 46 46 47 51 56 60 64 61 54 48 43 36 28 25 23 17 10 7 7 8 7 4 3 4
0 0 0 0 0 0 0 0 0 0 0 0 0 1 3 7 14 23 32 40 46 48 50 55 60 67 71 70 62 55 50 42 34 28 22 14 8 6 6 7 7 7 6 6
0 0 0 0 0 0 0 0 0 0 0 0 0 1 3 6 12 20 29 38 47 52 56 61 67 73 77 76 71 66 60 53 43 35 27 18 11 8 7 8 10 10 10 10
0 0 0 0 0 0 0 0 0 0 0 0 0 0 3 7 13 18 26 37 47 54 60 65 71 77 79 77 76 74 70 62 52 43 35 27 18 11 9 10 13 13 12 12
0 0 0 0 0 0 0 0 0 0 0 0 0 0 1 6 12 17 25 37 48 57 63 67 72 77 78 76 77 78 75 68 58 49 40 31 22 13 9 10 15 16 13 11
0 0 0 0 0 0 0 0 0 0 0 0 0 0 0 3 9 16 25 36 48 60 66 67 70 75 77 76 77 78 75 68 60 53 44 34 24 15 12 13 16 17 15 12
0 0 0 0 0 0 0 0 0 0 0 0 0 0 0 1 5 14 24 34 46 59 65 65 67 72 76 77 78 78 75 68 60 54 47 38 28 21 17 17 18 18 16 14
0 0 0 0 0 0 0 0 0 0 0 0 0 0 1 2 8 17 27 35 45 57 63 66 68 71 73 74 74 75 72 66 58 53 47 40 33 26 22 20 19 19 17 15
0 0 0 0 0 0 0 0 0 0 0 0 0 0 2 6 15 23 30 36 45 55 62 66 67 68 68 66 64 66 68 64 59 54 48 42 37 32 26 22 19 17 15 14
0 0 0 0 0 0 0 0 0 0 0 0 0 0 2 8 17 24 29 34 43 52 57 60 62 62 61 57 55 59 63 63 60 57 52 46 40 33 26 22 19 16 13 13
0 0 0 0 0 0 0 0 0 0 0 0 0 0 1 5 13 21 25 30 39 47 51 54 56 56 55 52 52 56 60 62 61 59 55 49 41 32 25 21 19 16 14 13
0 0 0 0 0 0 0 0 0 0 0 0 0 1 2 5 12 20 25 30 37 43 46 49 51 51 51 51 53 56 58 60 61 59 55 49 41 33 26 21 17 14 13 13
0 0 0 0 0 0 0 0 0 0 0 0 0 1 4 9 15 22 27 32 37 40 41 43 46 46 47 49 52 55 56 57 59 56 52 48 41 34 28 23 17 14 13 12
0 0 0 0 0 0 0 0 1 1 0 0 0 1 5 11 18 24 29 33 36 37 37 38 40 42 44 47 51 52 52 52 54 54 52 47 40 37 34 28 22 19 17 16
0 0 0 0 0 0 0 0 1 2 1 1 1 3 6 12 20 27 31 34 35 35 36 37 37 39 44 49 52 51 49 46 47 51 50 44 36 35 36 33 30 27 25 22
0 0 0 0 0 0 0 1 2 2 1 1 1 3 8 16 23 28 31 35 35 34 36 37 35 37 42 49 51 49 45 42 42 46 46 40 34 33 35 35 33 30 28 28
0 0 0 0 0 0 0 1 3 3 2 2 3 5 12 21 26 28 30 33 33 31 33 34 33 34 37 41 43 42 38 36 36 37 38 36 34 33 34 33 30 27 27 29
0 0 0 0 0 0 0 1 2 4 3 4 7 11 17 24 30 31 30 30 30 28 28 29 29 29 30 32 34 34 32 31 30 28 30 31 31 32 32 30 27 26 26 27
0 0 0 0 0 0 0 1 2 3 4 6 11 16 19 24 30 31 30 30 31 29 27 26 25 25 24 26 29 32 32 32 31 29 27 27 27 29 30 29 28 27 25 24
0 0 0 0 0 0 1 2 2 3 4 7 13 17 18 23 26 26 27 30 32 32 29 27 25 23 22 24 27 31 33 34 33 31 29 27 27 28 29 28 27 25 22 20
0 0 0 0 0 0 2 3 2 2 5 9 13 16 18 22 23 23 26 30 33 34 32 29 26 23 20 21 24 27 29 29 27 26 27 27 27 27 26 26 25 22 18 16
0 0 0 0 0 0 1 2 1 2 6 11 14 17 20 23 26 27 29 32 34 34 31 27 24 20 17 17 20 22 22 19 16 17 20 22 23 24 23 23 23 20 16 14
0 0 0 0 0 0 0 0 0 3 9 13 15 16 19 23 26 26 27 30 30 30 27 23 19 16 14 14 15 17 15 11 9 11 13 15 16 19 21 21 20 18 16 14
0 0 0 0 0 0 0 0 1 6 12 15 14 14 15 18 19 19 20 22 22 22 21 19 16 15 13 12 13 14 13 10 10 10 11 11 12 14 16 16 15 15 14 13
0 0 0 0 1 1 1 1 4 9 13 14 13 12 12 12 13 13 13 15 17 17 17 16 15 15 14 12 12 14 14 12 11 11 10 11 12 12 12 10 8 9 9 8
0 0 0 1 2 2 1 2 5 10 13 12 11 12 12 11 11 11 11 13 16 16 14 14 15 16 14 12 12 14 15 13 11 10 10 11 12 12 9 6 4 4 4 3

GEFSCGP_con_prob3kmehi_216.txt.gz
EHI
0 0 0 0 0 0 0 0 0 0 0 1 2 2 2 5 7 8 9 7 5 4 5 10 15 17 15 13 12 12 11 8 6 5 3 1 0 0 0 0 0 0 0 0
0 0 0 0 0 0 0 0 0 0 0 0 1 1 1 3 5 7 7 6 4 4 6 11 17 20 19 17 15 14 13 11 9 8 5 2 0 0 0 0 0 0 0 0
0 0 0 0 0 0 0 0 0 0 0 0 0 0 0 1 2 4 5 4 2 3 7 12 16 21 24 24 21 19 18 17 16 13 9 6 3 3 2 1 0 0 0 0
0 0 0 0 0 0 0 0 0 0 0 0 0 0 0 1 1 2 4 3 3 4 9 13 15 18 24 26 26 25 23 24 22 20 17 13 9 6 4 1 0 0 0 0
0 0 0 0 0 0 0 0 0 0 0 0 0 0 0 0 1 2 3 5 7 9 13 14 14 16 21 25 27 28 29 30 28 25 23 18 12 8 4 2 1 1 0 0
0 0 0 0 0 0 0 0 0 0 0 0 0 0 0 0 1 1 3 8 14 16 16 16 16 17 20 24 29 33 34 35 32 29 26 21 13 7 3 2 2 2 1 1
0 0 0 0 0 0 0 0 0 0 0 0 0 0 0 0 1 2 5 12 19 22 20 20 22 22 22 25 31 36 40 40 37 33 28 22 14 7 3 3 3 3 3 2
0 0 0 0 0 0 0 0 0 0 0 0 0 0 0 1 3 6 10 15 21 24 23 24 27 27 26 27 31 37 42 43 40 36 30 24 17 9 4 3 3 3 3 3
0 0 0 0 0 0 0 0 0 0 0 0 0 0 0 2 6 11 14 17 19 22 24 26 29 30 30 29 31 35 39 41 39 37 32 26 19 12 7 5 4 3 3 3
0 0 0 0 0 0 0 0 0 0 0 0 0 0 0 2 7 12 14 14 14 18 22 25 26 28 30 30 32 34 36 36 35 36 34 27 21 15 11 8 5 4 3 3
0 0 0 0 0 0 0 0 0 0 0 0 0 0 0 1 5 10 12 10 10 16 21 23 23 24 27 30 32 33 33 31 29 33 34 30 23 18 13 10 7 6 5 5
0 0 0 0 0 0 0 0 0 0 0 0 0 0 1 2 5 8 11 11 12 17 22 23 22 24 27 28 28 28 28 27 26 29 32 30 25 20 16 13 10 7 7 6
0 0 0 0 0 0 0 0 0 0 0 0 0 1 2 3 6 9 12 15 17 20 22 23 23 26 27 26 24 23 25 26 26 27 27 25 23 22 20 16 10 6 6 7
0 0 0 0 0 0 0 0 0 0 0 0 0 1 2 3 5 10 13 15 19 22 23 24 24 24 23 22 23 24 25 26 27 26 23 21 22 23 22 18 11 6 5 7
0 0 0 0 0 0 1 1 0 0 0 0 0 0 1 1 5 10 13 16 21 24 25 26 26 23 19 18 20 25 26 25 26 26 23 22 23 23 21 16 10 6 5 6
0 0 0 0 0 0 1 2 1 0 0 0 0 0 0 2 6 12 15 18 22 26 27 29 28 23 17 15 17 22 26 25 23 24 23 22 23 23 20 16 11 8 6 5
0 0 0 0 0 0 1 1 1 0 0 0 0 1 1 3 9 15 17 18 21 23 25 27 26 21 15 12 13 19 24 23 21 21 21 21 22 22 20 17 13 11 8 7
0 0 0 0 0 0 0 0 0 0 0 0 0 1 2 4 10 14 15 17 19 20 20 20 19 15 11 9 10 15 19 20 20 20 20 20 20 19 18 17 15 14 12 11
0 0 0 0 0 0 0 0 0 0 0 0 0 1 2 6 10 11 12 14 18 19 18 15 12 10 8 8 10 13 17 19 19 20 20 19 17 14 13 13 14 14 13 12
0 0 0 0 0 0 0 0 0 0 0 0 0 1 4 7 9 9 10 14 17 19 17 12 9 7 7 8 9 12 16 19 19 19 18 15 12 10 9 10 12 12 12 11
0 0 0 0 0 0 0 0 0 0 0 0 1 3 6 7 7 8 12 16 18 18 15 11 8 6 5 6 8 10 14 16 15 14 13 10 8 7 7 8 11 12 12 11
0 0 0 0 0 0 0 0 0 0 0 0 1 3 7 8 7 9 13 17 19 19 15 10 7 5 5 5 7 9 11 11 9 7 6 6 5 5 6 9 11 13 13 11
0 0 0 0 0 0 0 0 0 0 0 0 0 3 6 8 8 10 12 14 17 18 15 10 7 6 6 6 8 9 9 8 6 4 2 4 5 7 8 9 11 13 12 11
0 0 0 0 0 0 0 0 0 0 0 0 1 3 5 6 7 8 10 12 14 15 14 9 7 6 6 7 7 7 7 7 6 4 3 4 7 9 9 9 10 11 11 10
0 0 0 0 0 1 1 0 0 0 0 1 2 4 5 4 4 6 8 10 12 13 12 9 7 6 6 6 5 5 6 7 5 4 4 5 7 9 10 9 8 8 7 7
0 0 1 1 1 2 2 1 0 0 0 1 3 4 4 2 2 4 7 9 10 11 10 8 6 6 6 5 4 5 6 6 5 4 4 6 7 8 9 9 6 4 3 3